sat.trackr.live / text

‹ back to catalog

NIGHTJAR

NORAD 60535 · 2024-149BV

PAYLOAD ACTIVE UNKNOWN

§ Identity

Operator
Country
ROC
Launch date
2024-08-16
Launch site
AFWTR
Launch vehicle
Mass (kg)
RCS (m²)

External: N2YO · Heavens-Above · Gunter

§ Orbital elements

Epoch: 2026-05-25T03:52:59.184768Z

Period
96.07 min
Inclination
97.6848°
Eccentricity
0.0002692
Mean motion
14.98863593 rev/d
Perigee alt
568.5 km
Apogee alt
572.3 km
Semi-major
6,948.5 km
B*
2.8684e-4
RAAN
222.1880°
Arg perigee
114.9358°
Mean anomaly
245.2145°
Rev number
13,942

§ Raw data

NIGHTJAR1 60535U 24149BV  26145.16179612  .00003405  00000+0  28684-3 0  99922 60535  97.6848 222.1880 0002692 114.9358 245.2145 14.98863593139424

JSON: /api/v1/satellites/60535 · /tle

For live sub-satellite position, see the globe view (requires WebGL).

§ Visibility from observer

Set your observer location to see the next 7 days of passes ≥ 10°. The values pass through the URL so the page stays shareable.

No JS? Fill the form by hand. The geolocation button needs JavaScript.

§ Radio — SatNOGS DB

ModeDescriptionDownlinkUplink
GFSK UHF 9k6 Telemetry 435.350 MHz

1 transmitter · refreshed weekly from db.satnogs.org